Time,TemperatureF,DewpointF,PressureIn,WindDirection,WindDirectionDegrees,WindSpeedMPH,WindSpeedGustMPH,Humidity,HourlyPrecipIn,Conditions,Clouds,dailyrainin,SoftwareType,DateUTC
2013-04-02 07:02:00,37.0,34.0,-100.00,South,185,1.0,-999.0,87,0.00,,,-99.99,,2013-04-02 13:02:00,
2013-04-02 07:12:00,37.0,34.0,-100.00,South,185,4.0,6.0,87,0.00,,,-99.99,,2013-04-02 13:12:00,
2013-04-02 07:22:00,37.0,34.0,-100.00,South,185,4.0,6.0,87,0.00,,,-99.99,,2013-04-02 13:22:00,
2013-04-02 07:33:00,38.0,34.0,-100.00,South,170,3.0,6.0,87,0.00,,,-99.99,,2013-04-02 13:33:00,
2013-04-02 07:42:00,38.0,35.0,-100.00,SSW,200,4.0,6.0,87,0.00,,,-99.99,,2013-04-02 13:42:00,
2013-04-02 07:52:00,38.0,35.0,-100.00,SW,215,4.0,5.0,87,0.00,,,-99.99,,2013-04-02 13:52:00,
2013-04-02 08:02:00,38.0,35.0,-100.00,SW,215,4.0,5.0,87,0.00,,,-99.99,,2013-04-02 14:02:00,
2013-04-02 08:12:00,38.0,35.0,-100.00,West,270,2.0,5.0,88,0.00,,,-99.99,,2013-04-02 14:12:00,
2013-04-02 08:22:00,38.0,35.0,-100.00,SSW,210,4.0,4.0,88,0.00,,,-99.99,,2013-04-02 14:22:00,
2013-04-02 08:32:00,38.0,35.0,-100.00,SSW,205,4.0,5.0,89,0.00,,,-99.99,,2013-04-02 14:32:00,
2013-04-02 08:42:00,38.0,35.0,-100.00,SSW,210,3.0,4.0,88,0.00,,,-99.99,,2013-04-02 14:42:00,
2013-04-02 08:52:00,38.0,35.0,-100.00,SSW,210,2.0,6.0,88,0.00,,,-99.99,,2013-04-02 14:52:00,
2013-04-02 09:02:00,38.0,35.0,-100.00,SSW,210,3.0,6.0,88,0.00,,,-99.99,,2013-04-02 15:02:00,
2013-04-02 09:11:00,38.0,35.0,-100.00,SW,220,3.0,4.0,87,0.00,,,-99.99,,2013-04-02 15:11:00,
2013-04-02 09:33:00,38.0,35.0,-100.00,SW,215,4.0,6.0,87,0.00,,,-99.99,,2013-04-02 15:33:00,
2013-04-02 09:42:00,39.0,35.0,-100.00,SW,215,2.0,5.0,87,0.00,,,-99.99,,2013-04-02 15:42:00,
2013-04-02 09:54:00,39.0,35.0,-100.00,West,270,3.0,6.0,87,0.00,,,-99.99,,2013-04-02 15:54:00,
2013-04-02 10:03:00,39.0,35.0,-100.00,SW,230,3.0,6.0,87,0.00,,,-99.99,,2013-04-02 16:03:00,
2013-04-02 10:13:00,39.0,35.0,-100.00,West,280,4.0,6.0,86,0.00,,,-99.99,,2013-04-02 16:13:00,
2013-04-02 10:24:00,39.0,35.0,-100.00,South,180,2.0,4.0,86,0.00,,,-99.99,,2013-04-02 16:24:00,
2013-04-02 10:34:00,39.0,35.0,-100.00,South,190,1.0,4.0,86,0.00,,,-99.99,,2013-04-02 16:34:00,
2013-04-02 10:43:00,39.0,35.0,-100.00,WSW,250,3.0,5.0,86,0.00,,,-99.99,,2013-04-02 16:43:00,
2013-04-02 10:52:00,39.0,35.0,-100.00,SSW,200,2.0,4.0,85,0.00,,,-99.99,,2013-04-02 16:52:00,
2013-04-02 11:04:00,40.0,36.0,-100.00,SW,230,2.0,4.0,85,0.00,,,-99.99,,2013-04-02 17:04:00,
2013-04-02 11:13:00,39.0,35.0,-100.00,SW,225,4.0,6.0,84,0.00,,,-99.99,,2013-04-02 17:13:00,
2013-04-02 11:24:00,39.0,35.0,-100.00,SSW,200,5.0,7.0,84,0.00,,,-99.99,,2013-04-02 17:24:00,
2013-04-02 11:34:00,40.0,35.0,-100.00,South,180,4.0,7.0,83,0.00,,,-99.99,,2013-04-02 17:34:00,
2013-04-02 11:43:00,39.0,35.0,-100.00,SSW,210,7.0,9.0,85,0.00,,,-99.99,,2013-04-02 17:43:00,
2013-04-02 11:53:00,39.0,36.0,-100.00,SSW,200,5.0,7.0,87,0.00,,,-99.99,,2013-04-02 17:53:00,
2013-04-02 12:03:00,39.0,36.0,-100.00,SSW,195,4.0,7.0,89,0.00,,,-99.99,,2013-04-02 18:03:00,
2013-04-02 12:12:00,38.0,35.0,-100.00,SSW,210,6.0,9.0,89,0.00,,,-99.99,,2013-04-02 18:12:00,
2013-04-02 12:23:00,38.0,35.0,-100.00,SW,215,4.0,7.0,89,0.00,,,-99.99,,2013-04-02 18:23:00,
2013-04-02 12:33:00,38.0,35.0,-100.00,SSW,200,6.0,9.0,90,0.00,,,-99.99,,2013-04-02 18:33:00,
2013-04-02 12:42:00,38.0,36.0,-100.00,SSW,205,4.0,8.0,91,0.00,,,-99.99,,2013-04-02 18:42:00,
2013-04-02 12:53:00,38.0,36.0,-100.00,South,190,4.0,8.0,92,0.00,,,-99.99,,2013-04-02 18:53:00,
2013-04-02 13:03:00,38.0,36.0,-100.00,ESE,115,3.0,6.0,93,0.00,,,-99.99,,2013-04-02 19:03:00,
2013-04-02 13:13:00,37.0,35.0,-100.00,ESE,110,4.0,7.0,94,0.00,,,-99.99,,2013-04-02 19:13:00,
2013-04-02 13:22:00,37.0,36.0,-100.00,SSE,150,3.0,6.0,96,0.00,,,-99.99,,2013-04-02 19:22:00,
2013-04-02 13:33:00,37.0,36.0,-100.00,SE,135,2.0,6.0,97,0.00,,,-99.99,,2013-04-02 19:33:00,
2013-04-02 13:45:00,37.0,36.0,-100.00,ESE,120,4.0,6.0,97,0.00,,,-99.99,,2013-04-02 19:45:00,
2013-04-02 13:53:00,36.0,36.0,-100.00,SSE,165,4.0,7.0,98,0.00,,,-99.99,,2013-04-02 19:53:00,
2013-04-02 14:03:00,37.0,37.0,-100.00,SSE,160,4.0,6.0,99,0.00,,,-99.99,,2013-04-02 20:03:00,
2013-04-02 14:13:00,37.0,37.0,-100.00,SE,130,3.0,7.0,99,0.00,,,-99.99,,2013-04-02 20:13:00,
2013-04-02 14:22:00,37.0,37.0,-100.00,SSE,150,4.0,6.0,99,0.00,,,-99.99,,2013-04-02 20:22:00,
2013-04-02 14:33:00,37.0,37.0,-100.00,SSE,165,2.0,6.0,99,0.00,,,-99.99,,2013-04-02 20:33:00,
2013-04-02 14:43:00,36.0,36.0,-100.00,SSW,205,4.0,6.0,99,0.00,,,-99.99,,2013-04-02 20:43:00,
2013-04-02 14:53:00,36.0,36.0,-100.00,WSW,240,4.0,6.0,99,0.00,,,-99.99,,2013-04-02 20:53:00,
2013-04-02 15:03:00,36.0,36.0,-100.00,SSW,200,5.0,7.0,99,0.00,,,-99.99,,2013-04-02 21:03:00,
2013-04-02 15:13:00,36.0,36.0,-100.00,SSW,195,5.0,7.0,99,0.00,,,-99.99,,2013-04-02 21:13:00,
2013-04-02 15:23:00,36.0,36.0,-100.00,SSW,210,4.0,6.0,99,0.00,,,-99.99,,2013-04-02 21:23:00,
2013-04-02 15:34:00,36.0,36.0,-100.00,South,180,6.0,7.0,99,0.20,,,-99.99,,2013-04-02 21:34:00,
2013-04-02 15:43:00,35.0,35.0,-100.00,South,170,5.0,9.0,99,0.00,,,-99.99,,2013-04-02 21:43:00,
2013-04-02 15:54:00,35.0,35.0,-100.00,SSE,165,5.0,6.0,99,0.00,,,-99.99,,2013-04-02 21:54:00,
2013-04-02 16:04:00,35.0,35.0,-100.00,South,170,4.0,7.0,99,0.00,,,-99.99,,2013-04-02 22:04:00,
2013-04-02 16:13:00,34.0,34.0,-100.00,SSE,155,3.0,6.0,99,0.00,,,-99.99,,2013-04-02 22:13:00,
2013-04-02 16:23:00,34.0,34.0,-100.00,SSE,155,1.0,3.0,99,0.10,,,-99.99,,2013-04-02 22:23:00,
2013-04-02 16:33:00,34.0,34.0,-100.00,South,170,1.0,2.0,99,0.00,,,-99.99,,2013-04-02 22:33:00,
2013-04-02 16:43:00,35.0,35.0,-100.00,ESE,115,0.0,3.0,99,0.00,,,-99.99,,2013-04-02 22:43:00,
2013-04-02 16:53:00,35.0,35.0,-100.00,ENE,75,1.0,2.0,99,0.00,,,-99.99,,2013-04-02 22:53:00,
2013-04-02 17:02:00,35.0,35.0,-100.00,SSE,155,1.0,3.0,99,0.00,,,-99.99,,2013-04-02 23:02:00,
2013-04-02 17:12:00,35.0,35.0,-100.00,South,185,2.0,4.0,99,0.00,,,-99.99,,2013-04-02 23:12:00,
2013-04-02 17:23:00,35.0,35.0,-100.00,SE,140,2.0,6.0,99,0.00,,,-99.99,,2013-04-02 23:23:00,
2013-04-02 17:33:00,36.0,36.0,-100.00,SE,125,2.0,4.0,99,0.00,,,-99.99,,2013-04-02 23:33:00,
2013-04-02 17:42:00,36.0,36.0,-100.00,SE,145,3.0,6.0,99,0.00,,,-99.99,,2013-04-02 23:42:00,
2013-04-02 17:52:00,36.0,36.0,-100.00,SSE,160,3.0,6.0,99,0.00,,,-99.99,,2013-04-02 23:52:00,
2013-04-02 18:03:00,36.0,36.0,-100.00,ESE,110,3.0,4.0,99,0.00,,,-99.99,,2013-04-03 00:03:00,
2013-04-02 18:13:00,36.0,36.0,-100.00,NE,40,1.0,4.0,99,0.00,,,-99.99,,2013-04-03 00:13:00,
2013-04-02 18:23:00,36.0,36.0,-100.00,East,80,2.0,4.0,99,0.00,,,-99.99,,2013-04-03 00:23:00,
2013-04-02 18:33:00,36.0,36.0,-100.00,SE,140,3.0,4.0,99,0.00,,,-99.99,,2013-04-03 00:33:00,
2013-04-02 18:44:00,36.0,36.0,-100.00,SSE,160,2.0,4.0,99,0.00,,,-99.99,,2013-04-03 00:44:00,
2013-04-02 18:53:00,36.0,36.0,-100.00,SSE,150,4.0,7.0,98,0.00,,,-99.99,,2013-04-03 00:53:00,
2013-04-02 19:03:00,37.0,36.0,-100.00,SSE,160,2.0,6.0,98,0.00,,,-99.99,,2013-04-03 01:03:00,
2013-04-02 19:12:00,37.0,36.0,-100.00,SE,140,2.0,5.0,97,0.00,,,-99.99,,2013-04-03 01:12:00,
2013-04-02 19:20:00,37.0,36.0,-100.00,ESE,120,2.0,4.0,97,0.00,,,-99.99,,2013-04-03 01:20:00,
2013-04-02 19:22:00,37.0,36.0,-100.00,ESE,105,2.0,4.0,97,0.00,,,-99.99,,2013-04-03 01:22:00,
2013-04-02 19:33:00,37.0,36.0,-100.00,ESE,120,2.0,4.0,97,0.00,,,-99.99,,2013-04-03 01:33:00,
2013-04-02 19:42:00,37.0,36.0,-100.00,ESE,120,2.0,4.0,97,0.00,,,-99.99,,2013-04-03 01:42:00,
2013-04-02 19:52:00,37.0,36.0,-100.00,ESE,120,2.0,4.0,97,0.00,,,-99.99,,2013-04-03 01:52:00,
2013-04-02 20:03:00,37.0,36.0,-100.00,ESE,120,2.0,4.0,97,0.00,,,-99.99,,2013-04-03 02:03:00,